Powrót do katalogu

STARLINK-33957

AktywnyŁącznośćVLEO
NORAD 63897·PAYLOAD·🇺🇸 United States

Wystrzelony May 10, 2025 z Cape Canaveral Space Force Station

Loading…

Następne Przeloty (najbliższe 24 godziny)

TLE

ŚwieżeSource: CelesTrak SupGP

Epoka: Sep 15, 2026, 02:19 UTC

1 63897C 25095H   26258.09701389 -.00029839  00000+0 -10809-2 0  2584
2 63897  43.0013 186.8502 0001248 270.0472  20.4380 15.27588736    13

Śledź STARLINK-33957 w czasie rzeczywistym z AllMySat

Download on the App Store